• In Russia
  • List of Countries
  • For 7 days
  • Water Temperature
  • Satellite Maps
  • Weather Map
  • Weather Widgets
  • user-avatar
    Login

    Hourly Weather Barra

    Today, 21 May, Monday

    Time Temperature Precipitation Wind Pressure Humidity
    00:00 +20°C° 0 mm 4 mps 752 mmHg 94%
    01:00 +20°C° 0 mm 4 mps 752 mmHg 95%
    02:00 +20°C° 0 mm 4 mps 752 mmHg 95%
    03:00 +19°C° 0 mm 4 mps 752 mmHg 95%
    04:00 +19°C° 0 mm 4 mps 751 mmHg 95%
    05:00 +19°C° 0 mm 4 mps 752 mmHg 94%
    06:00 +19°C° 0 mm 4 mps 752 mmHg 92%
    07:00 +19°C° 0 mm 4 mps 752 mmHg 91%
    08:00 +21°C° 0 mm 5 mps 752 mmHg 81%
    09:00 +22°C° 0 mm 5 mps 752 mmHg 72%
    10:00 +25°C° 0 mm 5 mps 753 mmHg 62%
    11:00 +26°C° 0 mm 5 mps 752 mmHg 59%
    12:00 +27°C° 0 mm 5 mps 752 mmHg 57%
    13:00 +27°C° 0 mm 6 mps 752 mmHg 54%
    14:00 +27°C° 0 mm 5 mps 751 mmHg 55%
    15:00 +26°C° 0 mm 5 mps 751 mmHg 56%
    16:00 +26°C° 0 mm 5 mps 751 mmHg 57%
    17:00 +23°C° 0 mm 5 mps 751 mmHg 66%
    18:00 +22°C° 0 mm 5 mps 752 mmHg 75%
    19:00 +20°C° 0 mm 4 mps 752 mmHg 84%
    20:00 +20°C° 0 mm 4 mps 753 mmHg 86%
    21:00 +20°C° 0 mm 4 mps 753 mmHg 88%
    22:00 +20°C° 0 mm 4 mps 753 mmHg 90%
    23:00 +20°C° 0 mm 4 mps 753 mmHg 89%

    Tomorrow, 22 May, Tuesday

    Time Temperature Precipitation Wind Pressure Humidity
    00:00 +20°C° 0 mm 4 mps 753 mmHg 88%
    01:00 +20°C° 0 mm 5 mps 753 mmHg 87%
    02:00 +19°C° 0 mm 4 mps 753 mmHg 85%
    03:00 +19°C° 0 mm 4 mps 753 mmHg 83%
    04:00 +18°C° 0 mm 4 mps 752 mmHg 81%
    05:00 +17°C° 0 mm 4 mps 753 mmHg 76%
    06:00 +17°C° 0 mm 4 mps 753 mmHg 72%
    07:00 +15°C° 0 mm 4 mps 753 mmHg 67%
    08:00 +19°C° 0 mm 5 mps 753 mmHg 56%
    09:00 +21°C° 0 mm 5 mps 754 mmHg 45%
    10:00 +23°C° 0 mm 5 mps 754 mmHg 34%
    11:00 +25°C° 0 mm 5 mps 753 mmHg 32%
    12:00 +26°C° 0 mm 5 mps 753 mmHg 31%
    13:00 +26°C° 0 mm 5 mps 752 mmHg 30%
    14:00 +26°C° 0 mm 5 mps 752 mmHg 33%
    15:00 +26°C° 0 mm 5 mps 751 mmHg 35%
    16:00 +25°C° 0 mm 4 mps 751 mmHg 38%
    17:00 +22°C° 0 mm 4 mps 751 mmHg 46%
    18:00 +20°C° 0 mm 4 mps 752 mmHg 54%
    19:00 +18°C° 0 mm 3 mps 752 mmHg 62%
    20:00 +18°C° 0 mm 3 mps 752 mmHg 65%
    21:00 +17°C° 0 mm 4 mps 753 mmHg 68%
    22:00 +17°C° 0 mm 4 mps 753 mmHg 71%
    23:00 +17°C° 0 mm 4 mps 753 mmHg 75%

    Day after tomorrow, 23 May, Wednesday

    Time Temperature Precipitation Wind Pressure Humidity
    00:00 +17°C° 0 mm 4 mps 753 mmHg 78%
    01:00 +17°C° 0 mm 4 mps 753 mmHg 82%
    02:00 +17°C° 0 mm 4 mps 752 mmHg 82%
    03:00 +17°C° 0 mm 4 mps 752 mmHg 82%
    04:00 +17°C° 0 mm 4 mps 752 mmHg 82%
    05:00 +15°C° 0 mm 4 mps 752 mmHg 81%
    06:00 +15°C° 0 mm 4 mps 752 mmHg 79%
    07:00 +15°C° 0 mm 4 mps 753 mmHg 78%
    08:00 +18°C° 0 mm 4 mps 753 mmHg 69%
    09:00 +21°C° 0 mm 4 mps 753 mmHg 61%
    10:00 +23°C° 0 mm 5 mps 753 mmHg 53%
    11:00 +25°C° 0 mm 5 mps 753 mmHg 53%
    12:00 +25°C° 0 mm 5 mps 752 mmHg 52%
    13:00 +26°C° 0 mm 5 mps 751 mmHg 52%
    14:00 +25°C° 0 mm 5 mps 751 mmHg 54%
    15:00 +25°C° 0 mm 4 mps 751 mmHg 56%
    16:00 +25°C° 0 mm 4 mps 750 mmHg 58%
    17:00 +22°C° 0 mm 4 mps 751 mmHg 67%
    18:00 +20°C° 0 mm 4 mps 751 mmHg 75%
    19:00 +18°C° 0 mm 4 mps 751 mmHg 84%
    20:00 +18°C° 0 mm 4 mps 752 mmHg 86%
    21:00 +18°C° 0 mm 4 mps 752 mmHg 88%
    22:00 +18°C° 0 mm 4 mps 753 mmHg 90%
    23:00 +18°C° 0 mm 4 mps 752 mmHg 90%

    24 May, Thursday

    Time Temperature Precipitation Wind Pressure Humidity
    00:00 +18°C° 0 mm 4 mps 752 mmHg 91%
    01:00 +19°C° 0 mm 4 mps 751 mmHg 91%
    02:00 +19°C° 0.1 mm 4 mps 751 mmHg 92%
    03:00 +18°C° 0.1 mm 4 mps 751 mmHg 93%
    04:00 +18°C° 0.1 mm 4 mps 750 mmHg 94%
    05:00 +18°C° 0.1 mm 4 mps 751 mmHg 94%
    06:00 +18°C° 0.1 mm 4 mps 751 mmHg 94%
    07:00 +18°C° 0.1 mm 4 mps 751 mmHg 94%
    08:00 +20°C° 0.1 mm 4 mps 751 mmHg 89%
    09:00 +21°C° 0.1 mm 4 mps 752 mmHg 84%
    10:00 +22°C° 0.1 mm 4 mps 752 mmHg 79%
    11:00 +23°C° 0.1 mm 4 mps 751 mmHg 75%
    12:00 +25°C° 0.1 mm 4 mps 751 mmHg 70%
    13:00 +25°C° 0.1 mm 4 mps 750 mmHg 66%
    14:00 +25°C° 0.1 mm 4 mps 750 mmHg 67%
    15:00 +25°C° 0.1 mm 4 mps 750 mmHg 68%
    16:00 +25°C° 0.1 mm 4 mps 749 mmHg 70%
    17:00 +22°C° 0.1 mm 4 mps 750 mmHg 76%
    18:00 +21°C° 0.1 mm 4 mps 750 mmHg 82%
    19:00 +20°C° 0.1 mm 4 mps 751 mmHg 88%
    20:00 +20°C° 0.1 mm 4 mps 751 mmHg 90%
    21:00 +20°C° 0.1 mm 4 mps 751 mmHg 92%
    22:00 +20°C° 0.1 mm 4 mps 751 mmHg 94%
    23:00 +20°C° 0.2 mm 4 mps 751 mmHg 95%

    25 May, Friday

    Time Temperature Precipitation Wind Pressure Humidity
    00:00 +20°C° 0.2 mm 4 mps 750 mmHg 96%
    01:00 +20°C° 0.2 mm 4 mps 750 mmHg 97%
    02:00 +20°C° 0.2 mm 4 mps 750 mmHg 97%
    03:00 +20°C° 0.2 mm 4 mps 749 mmHg 97%
    04:00 +20°C° 0.2 mm 4 mps 749 mmHg 97%
    05:00 +19°C° 0.2 mm 4 mps 750 mmHg 97%
    06:00 +19°C° 0.2 mm 4 mps 750 mmHg 97%
    07:00 +19°C° 0.2 mm 4 mps 750 mmHg 96%
    08:00 +20°C° 0.2 mm 4 mps 751 mmHg 94%
    09:00 +21°C° 0.2 mm 4 mps 751 mmHg 92%
    10:00 +21°C° 0.2 mm 4 mps 751 mmHg 90%
    11:00 +21°C° 0.6 mm 4 mps 750 mmHg 91%
    12:00 +21°C° 0.6 mm 4 mps 750 mmHg 91%
    13:00 +22°C° 0.6 mm 4 mps 749 mmHg 91%
    14:00 +22°C° 0.5 mm 4 mps 749 mmHg 92%
    15:00 +21°C° 0.5 mm 4 mps 749 mmHg 92%
    16:00 +21°C° 0.5 mm 4 mps 749 mmHg 93%
    17:00 +21°C° 0.4 mm 4 mps 749 mmHg 94%
    18:00 +21°C° 0.4 mm 4 mps 750 mmHg 95%
    19:00 +20°C° 0.4 mm 4 mps 750 mmHg 96%
    20:00 +20°C° 0.4 mm 4 mps 750 mmHg 96%
    21:00 +20°C° 0.4 mm 4 mps 750 mmHg 97%
    22:00 +20°C° 0.4 mm 4 mps 750 mmHg 97%
    23:00 +20°C° 0.1 mm 3 mps 750 mmHg 97%

    26 May, Saturday

    Time Temperature Precipitation Wind Pressure Humidity
    00:00 +20°C° 0.1 mm 3 mps 750 mmHg 97%
    01:00 +20°C° 0.1 mm 3 mps 750 mmHg 97%
    02:00 +20°C° 0 mm 3 mps 750 mmHg 97%
    03:00 +20°C° 0 mm 3 mps 750 mmHg 97%
    04:00 +20°C° 0 mm 3 mps 749 mmHg 97%
    05:00 +20°C° 0.1 mm 4 mps 750 mmHg 97%
    06:00 +20°C° 0.1 mm 4 mps 750 mmHg 97%
    07:00 +20°C° 0.1 mm 4 mps 751 mmHg 97%
    08:00 +21°C° 0.1 mm 4 mps 751 mmHg 92%
    09:00 +22°C° 0.1 mm 4 mps 751 mmHg 88%
    10:00 +23°C° 0.1 mm 4 mps 751 mmHg 84%
    11:00 +23°C° 0.3 mm 4 mps 751 mmHg 81%
    12:00 +25°C° 0.3 mm 4 mps 750 mmHg 79%
    13:00 +25°C° 0.3 mm 4 mps 749 mmHg 77%
    14:00 +25°C° 0.4 mm 4 mps 749 mmHg 78%
    15:00 +25°C° 0.4 mm 4 mps 749 mmHg 79%
    16:00 +23°C° 0.4 mm 4 mps 749 mmHg 80%
    17:00 +22°C° 0.4 mm 4 mps 749 mmHg 85%
    18:00 +21°C° 0.4 mm 4 mps 750 mmHg 90%
    19:00 +20°C° 0.4 mm 4 mps 750 mmHg 94%
    20:00 +20°C° 0.4 mm 4 mps 751 mmHg 95%
    21:00 +20°C° 0.4 mm 4 mps 751 mmHg 95%
    22:00 +20°C° 0.4 mm 4 mps 751 mmHg 96%
    23:00 +20°C° 0.3 mm 4 mps 751 mmHg 96%
    Show more